Regional Weather Roundup
Issued by NWS

Home | Current Version | Previous Version | Graphics & Text | Print | Product List | Glossary On
Versions: 1 2 3 4 5 6 7 8 9 10 11 12 13 14 15 16 17 18 19 20 21 22 23 24 25 26 27
000
ASUS45 KTFX 240010
RWRMT
MONTANA REGIONAL WEATHER ROUNDUP
NATIONAL WEATHER SERVICE GREAT FALLS MT
600 PM MDT FRI JUN 23 2017

NOTE: "FAIR" INDICATES FEW OR NO CLOUDS BELOW 12000 FEET WITH NO
SIGNIFICANT WEATHER AND/OR OBSTRUCTIONS TO VISIBILITY.

MTZ001>007-043-240100-
WEST OF THE DIVIDE

CITY           SKY/WX    TMP DP  RH WIND       PRES   REMARKS
KALISPELL      SUNNY     75  38  26 SW5       30.18F
MISSOULA       SUNNY     78  35  21 VRB3      30.16F
BUTTE          SUNNY     71  30  21 VRB6      30.25F
MULLAN PASS    SUNNY     64  30  27 VRB6      30.32S
ANACONDA         N/A     68  36  30 N6        30.24F
DEER LODGE       N/A     70  30  23 NW10G20   30.25S
EUREKA           N/A     75  32  20 MISG      30.18F
HAMILTON         N/A     75  36  23 NW8       30.17F
$$

MTZ008-052>055-240100-
SOUTHWEST MONTANA

CITY           SKY/WX    TMP DP  RH WIND       PRES   REMARKS
BOZEMAN        SUNNY     71  33  24 NE8       30.24S
DILLON         SUNNY     72  33  24 NE7       30.22F
W YELLOWSTONE  SUNNY     66  21  18 W9G16     30.28R
ENNIS          SUNNY     68  30  24 NE5G13    30.30R
THREE FORKS      N/A     71  34  25 NE7       30.20F
$$

MTZ009-010-012-014-046-048-049-054-240100-
EAST SLOPES AND CENTRAL MONTANA

CITY           SKY/WX    TMP DP  RH WIND       PRES   REMARKS
CUT BANK       PTSUNNY   65  40  39 N6        30.27F
GREAT FALLS    PTSUNNY   64  35  34 E10       30.25F
MALMSTROM AFB  PTSUNNY   65  36  34 E7        30.26S
HELENA         MOSUNNY   71  34  25 N7        30.21F
CHOTEAU          N/A     63  39  42 N9        30.29S
$$

MTZ011-013-016-021-045-047-050-051-240100-
NORTH CENTRAL MONTANA

CITY           SKY/WX    TMP DP  RH WIND       PRES   REMARKS
HAVRE          MOSUNNY   72  34  24 NW18G26   30.21S
LEWISTOWN      MOSUNNY   64  33  31 W8G20     30.27S
N BAR RANCH    PTSUNNY   64  34  32 N13G22    30.29S
CHINOOK          N/A     68  36  30 W15G23    30.20S
FORT BENTON      N/A     72  36  26 MISG      30.25
$$

MTZ017>020-022>027-061-062-240100-
NORTHEAST MONTANA

CITY           SKY/WX    TMP DP  RH WIND       PRES   REMARKS
GLASGOW        MOSUNNY   68  29  23 NW17G26   30.16S
JORDAN           N/A     69  27  20 NW14      30.18F
SIDNEY         PTSUNNY   69  31  24 NW26G35   30.13R
WOLF POINT     PTSUNNY   70  29  21 NW21G30   30.15S
MALTA          MOSUNNY   70  34  26 NW20G25   30.18S
PLENTYWOOD       N/A     63  34  34 NW16G23   30.11R
POPLAR           N/A     66  30  26 NW20G28   30.14S
$$

MTZ028>42-056>058-240100-
SOUTHCENTRAL AND SOUTHEAST MONTANA

CITY           SKY/WX    TMP DP  RH WIND       PRES   REMARKS
BAKER          MOSUNNY   66  28  24 NW17G28   30.18R
BILLINGS       MOSUNNY   69  33  26 NE14      30.22F
LIVINGSTON     MOSUNNY   71  32  23 NW7       30.24R
MILES CITY     SUNNY     72  25  17 NW16      30.18S
BIG TIMBER     MOSUNNY   64  34  32 N9        30.27R
FORSYTH          N/A     70  30  23 NW9G17    30.19S
ROUNDUP          N/A     67  32  27 N12       30.13S
$$

REGIONAL REPORTS...DAKOTAS

CITY           SKY/WX    TMP DP  RH WIND       PRES   REMARKS
WILLISTON      CLOUDY    66  32  28 NW17G28   30.12S
MINOT          MOSUNNY   62  34  35 NW26G36   30.05S
DICKINSON      SUNNY     65  26  23 NW22G29   30.11R
BEACH            N/A     66  27  22 NW24G30   30.18S
CROSBY         PTSUNNY   59  32  36 NW20G25   30.10S
TIOGA            N/A     61  32  33 NW23G33   30.11S
WATFORD CITY     N/A     63  34  34 N20G26    30.11R
BISMARCK       MOSUNNY   66  34  30 N24G31    30.07R
GRAND FORKS    PTSUNNY   62  42  47 NW20G28   29.93R
FARGO          CLOUDY    67  40  37 NW22G30   29.92R
BUFFALO SD       N/A     68  27  21 NW23G31   30.10R
RAPID CITY     SUNNY     69  27  20 N22G33    30.17R
$$

REGIONAL REPORTS...WYOMING/IDAHO/WASHINGTON

CITY           SKY/WX    TMP DP  RH WIND       PRES   REMARKS
GILLETTE         N/A     63  31  30 N16       30.23S
SHERIDAN       SUNNY     67  34  29 NW12      30.23F
BUFFALO WY     SUNNY     61  32  33 N9G24     30.28R
CODY           SUNNY     66  32  28 N10       30.25F
YELLOWSTONE LA   N/A     59  29  31 SE5       30.34S
IDAHO FALLS    SUNNY     76  30  18 NE6       30.20F
SALMON         SUNNY     77  34  20 CALM      30.15R
BOISE          SUNNY     83  30  14 NW13      30.11F
SPOKANE        MOSUNNY   81  28  14 N9        30.19F
$$

REGIONAL REPORTS...ALBERTA

CITY           SKY/WX    TMP DP  RH WIND       PRES   REMARKS
EDMONTON       MOSUNNY   68  36  30 NW12G21   30.20R
CALGARY        MOSUNNY   63  37  39 N7        30.26S
LETHBRIDGE     MOSUNNY   70  36  28 NW9       30.25S
MEDICINE HAT   PTSUNNY   70  39  32 W15       30.20R
WATERTON GATE    N/A     64  39  39 NE5         N/A
MILK RIVER       N/A     64  39  39 N12         N/A
ONEFOUR          N/A     66  34  30 NW18G25     N/A
$$

REGIONAL REPORTS...SASKATCHEWAN

CITY           SKY/WX    TMP DP  RH WIND       PRES   REMARKS
SWIFT CURRENT  PTSUNNY   59  41  51 NW12G20   30.15S
REGINA         PTSUNNY   55  36  47 N21G26    30.11R
SASKATOON      PTSUNNY   63  39  42 NE12G20   30.13R
CYPRESS HILLS    N/A     57  32  38 N9G17       N/A
ROCKGLEN         N/A     61  32  33 NW18G26     N/A
ASSINIBOIA       N/A     66  36  32 N14         N/A
$$




USA.gov is the U.S. government's official web portal to all federal, state and local government web resources and services.